GFSNIL_sfc_thetae_132.txt.gz
Theta_e
313 313 312 312 311 309 307 306 306 305 305 304 304 305 305 303 302 300 299 299 299 298
308 307 306 306 306 304 303 301 303 304 304 303 302 302 302 300 299 298 297 296 296 297
305 305 305 304 303 302 301 300 299 298 298 298 297 299 298 297 296 294 295 295 294 294
301 301 300 299 298 297 295 295 294 294 293 293 293 293 293 294 293 292 292 292 292 291
295 295 294 294 294 294 293 292 293 292 291 290 290 290 289 288 289 288 287 289 289 290
291 291 290 290 290 291 290 289 289 288 287 286 285 285 286 286 286 287 287 288 287 287
288 288 288 287 287 286 286 285 285 285 285 285 284 284 285 285 285 285 286 286 286 285
285 285 284 283 283 283 283 283 284 283 283 284 283 284 284 284 284 284 285 285 285 285
282 282 281 282 281 282 282 282 282 282 282 281 283 286 288 286 283 284 284 284 284 285
280 280 280 281 281 281 281 281 281 281 281 281 282 287 288 287 283 283 283 284 284 284
278 278 279 279 279 279 280 280 280 279 279 280 282 286 287 285 283 283 283 283 283 283
277 277 277 277 277 278 278 278 278 279 277 277 278 285 286 284 281 282 282 283 283 283
276 275 275 275 276 276 277 278 278 278 276 277 275 282 284 283 280 278 280 281 282 283
274 274 274 274 274 274 274 275 273 275 276 275 276 276 282 282 278 277 277 277 278 280

GFSNIL_sfc_thetae_138.txt.gz
Theta_e
319 319 317 317 315 311 307 306 306 305 305 304 304 304 304 303 301 301 300 300 299 299
309 310 308 305 305 304 304 303 304 303 302 301 301 301 300 298 297 297 297 295 296 296
304 304 304 303 301 301 300 299 298 297 297 296 295 295 293 293 293 293 293 294 293 293
299 298 298 298 298 296 295 295 294 293 291 290 290 290 290 288 287 287 288 289 290 289
296 296 295 294 293 293 292 290 289 288 287 287 286 286 286 285 285 284 283 284 284 284
292 292 291 290 289 287 287 286 286 285 284 284 283 284 284 283 283 284 284 285 284 284
288 287 286 285 284 283 283 283 283 283 283 283 283 283 283 283 283 284 284 284 284 283
283 283 283 282 282 282 282 281 282 282 282 283 283 284 283 284 283 283 283 283 283 283
282 282 281 281 281 281 281 281 281 281 282 282 284 285 286 284 283 283 282 282 282 282
281 280 280 280 280 279 279 280 280 280 281 282 284 286 285 284 282 282 282 281 281 281
278 278 278 278 278 278 279 280 280 280 281 282 283 285 283 282 280 280 279 279 279 279
276 275 275 276 277 278 279 279 279 278 278 278 280 283 282 279 278 278 277 277 278 278
275 275 275 276 277 278 279 279 278 277 276 276 276 281 281 279 277 274 275 275 276 278
274 274 275 275 277 277 277 277 275 274 274 274 275 277 280 280 276 274 272 273 274 274

GFSNIL_sfc_thetae_141.txt.gz
Theta_e
309 321 321 317 318 315 311 308 306 306 305 305 304 304 304 302 301 300 300 299 299 298
311 314 311 308 307 305 304 303 303 302 301 301 300 300 299 297 297 297 296 295 295 296
304 305 305 304 302 301 301 300 299 298 297 296 295 295 295 294 293 291 292 292 291 291
300 300 300 299 299 297 296 296 294 293 292 292 291 290 288 287 287 286 286 286 286 285
297 296 295 294 294 293 292 292 291 290 288 286 285 285 285 284 284 284 283 283 283 282
293 292 290 291 290 290 289 288 286 285 284 283 283 283 283 284 283 283 283 283 283 282
290 290 289 288 287 286 285 283 283 282 282 282 283 283 283 283 283 283 282 283 282 282
286 286 285 284 283 282 282 282 282 283 282 283 283 283 282 283 283 282 282 282 282 282
284 283 282 281 281 281 281 281 282 282 282 282 284 285 286 284 282 282 282 281 280 281
281 280 280 280 279 279 279 280 280 280 282 282 283 285 284 283 281 280 279 279 279 279
279 278 278 278 278 278 279 279 279 279 281 282 283 283 282 281 280 278 278 278 278 278
278 277 277 276 277 278 278 277 278 278 278 280 281 282 281 279 277 277 276 277 277 277
276 276 275 276 276 276 277 277 277 276 276 277 277 282 281 279 276 273 275 275 275 277
274 274 275 274 276 276 276 275 274 274 274 273 275 279 281 279 276 273 272 273 272 273

GFSNIL_sfc_thetae_144.txt.gz
Theta_e
306 310 321 324 319 317 315 310 307 306 306 305 305 304 303 302 300 300 299 299 299 298
306 305 310 312 310 307 305 304 304 303 302 301 301 300 300 298 297 296 295 294 295 294
306 305 307 306 304 303 302 301 299 298 298 297 296 296 296 294 293 291 289 288 288 289
301 301 301 301 300 299 297 297 295 294 293 292 291 291 290 288 285 284 284 284 284 284
298 297 296 295 295 295 293 292 291 290 289 288 287 286 285 284 283 283 282 282 282 282
294 293 292 291 291 291 290 288 287 287 286 285 283 283 282 283 282 282 282 282 281 281
292 291 290 289 288 287 287 285 285 284 282 282 282 282 283 282 281 281 281 282 281 281
288 287 287 286 285 284 284 284 283 282 282 281 282 282 281 282 281 281 281 281 281 281
286 285 284 283 283 283 283 281 282 281 281 281 283 285 286 283 281 281 280 279 279 279
284 283 282 281 281 281 280 280 280 280 281 281 282 286 285 283 280 279 278 278 278 278
282 280 279 279 279 279 279 279 279 279 280 280 281 284 283 281 279 277 277 277 277 277
279 278 277 277 277 278 278 277 277 277 276 278 279 282 282 279 277 277 276 276 277 277
278 278 277 277 277 275 277 277 277 276 275 277 278 282 280 278 276 273 274 275 275 278
276 277 277 275 276 275 275 275 273 273 273 275 276 280 281 278 274 272 272 272 272 273